Regional Weather Roundup
Issued by NWS Kansas City/Pleasant Hill, MO

Home | Current Version | Previous Version | Text Only | Print | Product List | Glossary On
Versions: 1 2 3 4 5 6 7 8 9 10 11 12 13 14 15 16 17 18 19 20 21 22 23 24 25 26 27 28 29 30 31 32 33 34 35 36 37 38 39 40 41 42 43 44 45 46 47 48 49 50
000
ASUS43 KEAX 190611
RWREAX

WEATHER ROUNDUP FOR EASTERN KANSAS AND NORTHWEST MISSOURI
NATIONAL WEATHER SERVICE KANSAS CITY/PLEASANT HILL MO
1200 AM CST FRI DEC 19 2014

KSZ040-057-103>105-MOZ028-029-037-043-190700-
...KANSAS CITY METROPOLITAN AREA...

CITY           SKY/WX    TMP DP  RH WIND       PRES   REMARKS
K.C. INTL      FOG       31  30  96 NE3       30.26S VSB<1/4
6HR MIN TEMP:  31; 6HR MAX TEMP:  32;

K.C. DOWNTOWN  CLOUDY    32  31  96 NE6       30.27S FOG     WCI  26
6HR MIN TEMP:  32; 6HR MAX TEMP:  33;

LEES SUMMIT    CLOUDY    31  30  96 E5        30.26S FOG     WCI  26
6HR MIN TEMP:  32; 6HR MAX TEMP:  33;

OLATHE - IXD   CLOUDY    31  29  92 SE3       30.26R
6HR MIN TEMP:  31; 6HR MAX TEMP:  32;

OLATHE - OJC   CLOUDY    32  30  92 NE3       30.24F FOG
6HR MIN TEMP:  32; 6HR MAX TEMP:  33;

LAWRENCE       CLOUDY    32  29  88 N3        30.28R

$$

MOZ001>008-011>017-020>025-030>033-038>040-044>046-053-054-190700-
...NORTHERN AND CENTRAL MISSOURI...

CITY           SKY/WX    TMP DP  RH WIND       PRES   REMARKS
ST. JOSEPH     CLOUDY    31  28  89 SE3       30.28S FOG
6HR MIN TEMP:  31; 6HR MAX TEMP:  31;

MOSBY          CLOUDY    32  32 100 E3        30.28S FOG
WARRENSBURG    CLOUDY    32  32 100 CALM      30.27S FOG
WHITEMAN AFB   CLOUDY    33  32  97 E2        30.26S FOG
6HR MIN TEMP:  32; 6HR MAX TEMP:  33;

CLINTON        CLOUDY    34  34 100 E3        30.27S FOG
SEDALIA        FOG       33  32  96 E3        30.27S VSB 1/2
6HR MIN TEMP:  33; 6HR MAX TEMP:  34;

WARSAW         NOT AVBL
MARSHALL       CLOUDY    34  32  93 E5        30.28S FOG     WCI  30
CHILLICOTHE      N/A     31  27  85 CALM      30.30S
6HR MIN TEMP:  31; 6HR MAX TEMP:  31;

MOBERLY        CLOUDY    32  27  80 E5        30.29  WCI  27
KIRKSVILLE     CLOUDY    29  27  92 E3        30.29S
6HR MIN TEMP:  28; 6HR MAX TEMP:  30;


$$

MOZ041-047>049-056>058-063>065-088>090-097-190700-
...EASTERN AND SOUTHERN MISSOURI...

CITY           SKY/WX    TMP DP  RH WIND       PRES   REMARKS
ST. LOUIS INTL CLOUDY    34  25  69 NE3       30.30S
6HR MIN TEMP:  34; 6HR MAX TEMP:  35;

SPIRIT OF STL  CLOUDY    33  27  78 CALM      30.29S
COLUMBIA       CLOUDY    32  30  92 E5        30.27S FOG     WCI  27
JEFFERSON CITY CLOUDY    34  31  88 E3        30.28F
MEXICO         CLOUDY   N/A N/A N/A CALM      30.29  HAZE
ROLLA          FOG       32  31  96 E6        30.23S VSB 1/4 WCI  26
LEBANON        FOG       34  34 100 CALM      30.23F VSB 1/2
OSAGE BEACH    CLOUDY    34  32  93 NE3       30.25S VSB 3/4
SPRINGFIELD    CLOUDY    37  36  96 E5        30.22S FOG     WCI  33
BRANSON        FOG       37  36  93 CALM      30.23S VSB 1/4
NEVADA         FOG       34  34 100 CALM      30.26S VSB 3/4
JOPLIN         CLOUDY    36  35  96 NE3       30.24S FOG
WEST PLAINS    CLOUDY    36  34  92 CALM      30.24F FOG

$$

IAZ060-094-KSZ022-034>040-054-083-096-NEZ052-066-093-190700-
...KANSAS...SOUTHEAST NEBRASKA AND IOWA...

CITY           SKY/WX    TMP DP  RH WIND       PRES   REMARKS
TOPEKA         CLOUDY    33  29  85 SE5       30.28R WCI  29
6HR MIN TEMP:  33; 6HR MAX TEMP:  34;

MANHATTAN      CLOUDY    31  28  89 CALM      30.27S
EMPORIA        CLOUDY    30  29  96 CALM      30.25S
CHANUTE        CLOUDY    34  33  96 N3        30.26R
WICHITA        CLOUDY    31  28  89 CALM      30.25R FOG
OMAHA          CLOUDY    31  27  85 S8        30.27R WCI  23
LINCOLN        CLOUDY    31  28  89 S6        30.25S WCI  25
FALLS CITY     CLOUDY    30  27  88 CALM      30.26S
LAMONI         CLOUDY    28  25  88 SE3       30.27R
DES MOINES     CLOUDY    28  23  81 SE3       30.28S

$$




USA.gov is the U.S. government's official web portal to all federal, state and local government web resources and services.